Location: Blazny
(46.0612°N, 84.4033°W)
Time: 20:55:53
(UTC-04:00)

Envisat - Pass Details

Date: 19 September 2024
Orbit: 762 x 764 km, 98.3° (Epoch: 11 October)

Event Time Altitude Azimuth Distance (km) Brightness Sun altitude
Rises 04:16:19 0° 20° (NNE) 3,237 7.1 -30.4°
Reaches altitude 10° 04:18:46 10° 27° (NNE) 2,306 6.2 -30.1°
Maximum altitude 04:23:33 41° 98° (E) 1,096 4.0 -29.4°
Enters shadow 04:24:20 38° 121° (ESE) 1,145 4.0 -29.3°
